Big Rapids, MI

4:58 PM EST on December 07, 2019 (GMT -0500)
Roben-Hood

Weather History for KRQB - July, 2019

Change the Weather History Date:

Tuesday, July 30, 2019

  Actual Average Record
Temperature  
Mean Temperature 67 °F -  
Max Temperature 76 °F 80 °F 96 °F (1999)
Min Temperature 58 °F 54 °F 41 °F (1971)
Cooling Degree Days 2    
Growing Degree Days 17 (Base 50)    
Moisture  
Dew Point 59 °F    
Average Humidity 75    
Maximum Humidity 98    
Minimum Humidity 50    
Precipitation  
Precipitation 0.00 in - - ()
Sea Level Pressure  
Sea Level Pressure 29.99 in    
Wind  
Wind Speed 4 mph (NNW)    
Max Wind Speed 14 mph    
Max Gust Speed 23 mph    
Visibility 9 miles    
Events      
Averages and records for this station are not official NWS values.
T = Trace of Precipitation, MM = Missing Value Source: NWS Daily Summary

Daily Weather History Graph

Daily Weather History Graph

Search for Another Location

Airport or City:

Astronomy

Jul. 30, 2019 Rise Set
Actual Time 6:28 AM EDT 9:07 PM EDT
Civil Twilight 5:55 AM EDT 9:40 PM EDT
Nautical Twilight 5:14 AM EDT 10:21 PM EDT
Astronomical Twilight 4:26 AM EDT 11:09 PM EDT
Moon 4:33 AM EDT (7/30) 8:14 PM EDT (7/30)
Length of Visible Light 15h 45m
Length of Day
14h 39m
Waning Crescent, 3% of the Moon is Illuminated
Jul 30
Waning Crescent
Jul 31
New
Aug 7
First Quarter
Aug 15
Full
Aug 23
Last Quarter

Hourly Weather History & Observations

Time (EDT) Temp. Dew Point Humidity Pressure Visibility Wind Dir Wind Speed Gust Speed Precip Events Conditions
12:17 AM 64.8 °F 63.1 °F 94% 29.89 in 10.0 mi Calm Calm - N/A   Clear
12:35 AM 64.8 °F 63.1 °F 94% 29.89 in 10.0 mi Calm Calm - N/A   Clear
12:55 AM 63.5 °F 62.2 °F 96% 29.89 in 5.0 mi Calm Calm - N/A   Clear
12:56 AM 63.5 °F 62.2 °F 96% 29.89 in 7.0 mi South 3.5 mph - N/A   Clear
1:15 AM 63.5 °F 62.4 °F 96% 29.89 in 5.0 mi South 4.6 mph - N/A   Clear
1:38 AM 62.6 °F 61.7 °F 97% 29.89 in 5.0 mi Calm Calm - N/A   Clear
1:56 AM 62.8 °F 61.9 °F 97% 29.89 in 5.0 mi Calm Calm - N/A   Clear
2:15 AM 63.7 °F 62.8 °F 97% 29.89 in 7.0 mi Calm Calm - N/A   Scattered Clouds
2:35 AM 66.0 °F 65.1 °F 97% 29.89 in 10.0 mi West 4.6 mph - N/A   Scattered Clouds
2:59 AM 66.4 °F 65.1 °F 96% 29.89 in 10.0 mi West 4.6 mph - N/A   Scattered Clouds
3:16 AM 65.3 °F 63.5 °F 94% 29.89 in 10.0 mi Calm Calm - N/A   Scattered Clouds
3:35 AM 61.9 °F 60.8 °F 96% 29.90 in 5.0 mi Calm Calm - N/A   Clear
3:36 AM 61.9 °F 60.8 °F 96% 29.90 in 4.0 mi Calm Calm - N/A   Clear
3:55 AM 61.9 °F 61.0 °F 97% 29.90 in 4.0 mi Calm Calm - N/A   Clear
4:00 AM 62.1 °F 61.2 °F 97% 29.90 in 4.0 mi Calm Calm - N/A   Clear
4:18 AM 62.1 °F 61.2 °F 97% 29.90 in 4.0 mi Calm Calm - N/A   Scattered Clouds
4:36 AM 62.2 °F 61.3 °F 97% 29.90 in 1.0 mi Calm Calm - N/A   Mostly Cloudy
4:55 AM 61.9 °F 61.2 °F 97% 29.91 in 2.0 mi Calm Calm - N/A   Mostly Cloudy
4:56 AM 61.7 °F 61.0 °F 97% 29.91 in 3.0 mi Calm Calm - N/A   Scattered Clouds
5:15 AM 61.3 °F 60.6 °F 97% 29.91 in 4.0 mi Calm Calm - N/A   Mostly Cloudy
5:16 AM 61.3 °F 60.8 °F 98% 29.91 in 4.0 mi SE 3.5 mph - N/A   Overcast
5:38 AM 62.4 °F 61.7 °F 97% 29.92 in 5.0 mi NNW 3.5 mph - N/A   Overcast
5:56 AM 62.4 °F 61.7 °F 97% 29.92 in 10.0 mi North 5.8 mph - N/A   Overcast
6:15 AM 63.9 °F 63.0 °F 97% 29.93 in 10.0 mi NW 3.5 mph - N/A   Overcast
6:16 AM 63.9 °F 63.0 °F 97% 29.93 in 10.0 mi NW 4.6 mph - N/A   Overcast
6:35 AM 63.0 °F 62.1 °F 97% 29.93 in 7.0 mi Calm Calm - N/A   Overcast
6:59 AM 63.7 °F 62.8 °F 97% 29.94 in 10.0 mi North 4.6 mph - N/A   Mostly Cloudy
7:17 AM 63.9 °F 62.8 °F 96% 29.95 in 10.0 mi NNW 4.6 mph - N/A   Mostly Cloudy
7:35 AM 64.9 °F 63.5 °F 95% 29.96 in 10.0 mi North 5.8 mph - N/A   Scattered Clouds
7:55 AM 65.3 °F 63.5 °F 94% 29.96 in 10.0 mi NNW 4.6 mph - N/A   Clear
7:56 AM 65.3 °F 63.5 °F 94% 29.96 in 10.0 mi NNW 3.5 mph - N/A   Clear
8:15 AM 66.4 °F 64.0 °F 92% 29.97 in 10.0 mi North 5.8 mph - N/A   Clear
8:20 AM 66.7 °F 64.0 °F 91% 29.97 in 10.0 mi North 6.9 mph - N/A   Clear
8:38 AM 67.6 °F 64.4 °F 89% 29.98 in 10.0 mi North 6.9 mph - N/A   Scattered Clouds
8:56 AM 68.7 °F 64.2 °F 86% 29.98 in 10.0 mi North 5.8 mph - N/A   Scattered Clouds
9:15 AM 69.1 °F 62.6 °F 80% 29.99 in 10.0 mi North 6.9 mph - N/A   Mostly Cloudy
9:16 AM 69.1 °F 62.6 °F 80% 29.99 in 10.0 mi NNE 6.9 mph - N/A   Mostly Cloudy
9:35 AM 70.0 °F 63.0 °F 78% 29.99 in 10.0 mi NNE 4.6 mph - N/A   Scattered Clouds
9:58 AM 70.7 °F 62.4 °F 75% 29.99 in 10.0 mi NNE 8.1 mph - N/A   Mostly Cloudy
10:15 AM 71.1 °F 62.1 °F 73% 29.99 in 10.0 mi NE 4.6 mph - N/A   Scattered Clouds
10:16 AM 71.1 °F 62.1 °F 73% 29.99 in 10.0 mi ENE 4.6 mph - N/A   Scattered Clouds
10:35 AM 71.6 °F 61.9 °F 71% 30.00 in 10.0 mi ENE 4.6 mph - N/A   Scattered Clouds
10:58 AM 72.5 °F 61.3 °F 68% 30.00 in 10.0 mi NNE 4.6 mph - N/A   Clear
11:17 AM 73.4 °F 61.5 °F 66% 30.01 in 10.0 mi NNE 5.8 mph - N/A   Mostly Cloudy
11:35 AM 73.6 °F 62.4 °F 68% 30.01 in 10.0 mi NNE 6.9 mph - N/A   Overcast
11:36 AM 73.6 °F 62.2 °F 68% 30.01 in 10.0 mi NNE 4.6 mph - N/A   Overcast
11:55 AM 74.3 °F 61.0 °F 63% 30.01 in 10.0 mi West 8.1 mph - N/A   Mostly Cloudy
11:56 AM 74.3 °F 61.0 °F 63% 30.01 in 10.0 mi WNW 10.4 mph - N/A   Mostly Cloudy
12:15 PM 75.0 °F 59.7 °F 59% 30.00 in 10.0 mi NNE 5.8 mph - N/A   Mostly Cloudy
12:20 PM 74.3 °F 61.0 °F 63% 30.01 in 10.0 mi North 4.6 mph - N/A   Mostly Cloudy
12:38 PM 73.6 °F 59.9 °F 62% 30.01 in 10.0 mi WNW 8.1 mph 17.3 mph N/A   Mostly Cloudy
12:56 PM 75.4 °F 59.9 °F 58% 30.01 in 10.0 mi NNW 9.2 mph 17.3 mph N/A   Mostly Cloudy
1:15 PM 75.9 °F 59.5 °F 57% 30.01 in 10.0 mi North 11.5 mph 16.1 mph N/A   Scattered Clouds
1:35 PM 73.6 °F 57.2 °F 56% 30.01 in 10.0 mi NW 11.5 mph 18.4 mph N/A   Scattered Clouds
1:59 PM 74.8 °F 57.2 °F 54% 30.01 in 10.0 mi NNW 6.9 mph 16.1 mph N/A   Scattered Clouds
2:17 PM 76.1 °F 55.9 °F 50% 30.01 in 10.0 mi North 10.4 mph 16.1 mph N/A   Scattered Clouds
2:35 PM 75.9 °F 55.9 °F 50% 30.01 in 10.0 mi NW 8.1 mph 19.6 mph N/A   Scattered Clouds
2:36 PM 76.3 °F 56.7 °F 51% 30.01 in 10.0 mi North 6.9 mph 19.6 mph N/A   Scattered Clouds
2:55 PM 76.3 °F 57.2 °F 52% 30.01 in 10.0 mi NNW 10.4 mph 18.4 mph N/A   Mostly Cloudy
3:15 PM 75.4 °F 57.0 °F 53% 30.01 in 10.0 mi North 9.2 mph - N/A   Mostly Cloudy
3:19 PM 75.2 °F 56.5 °F 52% 30.01 in 10.0 mi NNW 10.4 mph 17.3 mph N/A   Mostly Cloudy
3:36 PM 74.7 °F 56.1 °F 52% 30.01 in 10.0 mi North 8.1 mph 16.1 mph N/A   Mostly Cloudy
3:55 PM 75.0 °F 56.1 °F 52% 30.01 in 10.0 mi NW 9.2 mph 17.3 mph N/A   Mostly Cloudy
3:56 PM 75.2 °F 56.3 °F 52% 30.01 in 10.0 mi NW 11.5 mph 19.6 mph N/A   Overcast
4:15 PM 74.1 °F 56.8 °F 55% 30.01 in 10.0 mi NW 12.7 mph 23.0 mph N/A   Overcast
4:16 PM 74.3 °F 57.0 °F 55% 30.01 in 10.0 mi NW 13.8 mph 23.0 mph N/A   Overcast
4:39 PM 74.8 °F 56.7 °F 53% 30.01 in 10.0 mi NNW 11.5 mph 19.6 mph N/A   Mostly Cloudy
4:57 PM 74.8 °F 55.8 °F 51% 30.01 in 10.0 mi NW 13.8 mph 20.7 mph N/A   Mostly Cloudy
5:15 PM 73.4 °F 56.5 °F 55% 30.01 in 10.0 mi NW 10.4 mph 17.3 mph N/A   Mostly Cloudy
5:35 PM 74.7 °F 55.9 °F 52% 30.01 in 10.0 mi WNW 11.5 mph - N/A   Overcast
5:36 PM 74.8 °F 55.8 °F 51% 30.01 in 10.0 mi NW 12.7 mph - N/A   Overcast
5:55 PM 74.5 °F 55.4 °F 51% 30.01 in 10.0 mi NW 12.7 mph 16.1 mph N/A   Mostly Cloudy
6:18 PM 74.5 °F 55.2 °F 51% 30.01 in 10.0 mi West 8.1 mph - N/A   Scattered Clouds
6:36 PM 73.4 °F 55.0 °F 52% 30.01 in 10.0 mi NNW 10.4 mph 17.3 mph N/A   Scattered Clouds
6:55 PM 71.8 °F 55.2 °F 56% 30.01 in 10.0 mi WNW 11.5 mph 18.4 mph N/A   Mostly Cloudy
6:56 PM 71.8 °F 55.4 °F 56% 30.01 in 10.0 mi NW 9.2 mph 18.4 mph N/A   Mostly Cloudy
7:15 PM 72.5 °F 55.4 °F 55% 30.02 in 10.0 mi NNW 10.4 mph 17.3 mph N/A   Mostly Cloudy
7:39 PM 71.1 °F 55.4 °F 58% 30.02 in 10.0 mi NNW 11.5 mph - N/A   Scattered Clouds
7:57 PM 70.2 °F 55.4 °F 59% 30.03 in 10.0 mi WNW 11.5 mph - N/A   Clear
8:15 PM 68.4 °F 55.4 °F 63% 30.03 in 10.0 mi NNW 9.2 mph 16.1 mph N/A   Clear
8:16 PM 68.4 °F 55.4 °F 63% 30.03 in 10.0 mi NNW 8.1 mph - N/A   Clear
8:35 PM 68.0 °F 55.4 °F 64% 30.04 in 10.0 mi North 9.2 mph - N/A   Mostly Cloudy
8:55 PM 66.4 °F 55.4 °F 68% 30.05 in 10.0 mi North 8.1 mph - N/A   Scattered Clouds
9:18 PM 64.6 °F 55.4 °F 72% 30.06 in 10.0 mi NNW 5.8 mph - N/A   Clear
9:36 PM 63.7 °F 55.4 °F 74% 30.07 in 10.0 mi North 4.6 mph - N/A   Clear
9:55 PM 63.0 °F 54.9 °F 75% 30.08 in 10.0 mi NNW 3.5 mph - N/A   Clear
9:56 PM 62.8 °F 54.9 °F 75% 30.08 in 10.0 mi North 3.5 mph - N/A   Clear
10:15 PM 62.1 °F 54.7 °F 77% 30.09 in 10.0 mi North 4.6 mph - N/A   Clear
10:39 PM 61.3 °F 54.3 °F 78% 30.10 in 10.0 mi North 4.6 mph - N/A   Clear
10:57 PM 60.3 °F 54.0 °F 80% 30.10 in 10.0 mi North 4.6 mph - N/A   Clear
11:15 PM 59.5 °F 53.4 °F 80% 30.11 in 10.0 mi Calm Calm - N/A   Clear
11:16 PM 59.5 °F 53.6 °F 81% 30.11 in 10.0 mi Calm Calm - N/A   Clear
11:35 PM 58.8 °F 53.2 °F 82% 30.11 in 10.0 mi NNW 3.5 mph - N/A   Clear
11:55 PM 58.3 °F 53.2 °F 83% 30.12 in 10.0 mi Calm Calm - N/A   Clear